Weather History for Harvey, ND

Change the Weather History Date:

Tuesday, May 1, 2012

  Actual Average (KRUG) Record (KRUG)
Temperature  
Mean Temperature 56 °F -  
Max Temperature 71 °F 63 °F 85 °F (1985)
Min Temperature 42 °F 34 °F 19 °F (1958)
Degree Days  
Heating Degree Days 8    
Growing Degree Days 6 (Base 50)    
Moisture  
Dew Point 45 °F    
Average Humidity 68    
Maximum Humidity 100    
Minimum Humidity 31    
Precipitation  
Precipitation 0.00 in - - ()
Sea Level Pressure  
Sea Level Pressure 29.52 in    
Wind  
Wind Speed 7 mph (West)    
Max Wind Speed 25 mph    
Max Gust Speed 31 mph    
Visibility 10 miles    
Events Rain    
Averages and records for this station are not official NWS values.
T = Trace of Precipitation, MM = Missing Value Source: NWS Daily Summary

Daily Weather History Graph

Daily Weather History Graph

Search for Another Location

Airport:

Trip Planner

Search our weather history database for the weather conditions in past years. The results will help you decide how hot, cold, wet, or windy it might be!

Date:

Astronomy

May. 01, 2012 Rise Set
Actual Time 6:21 AM CDT 8:53 PM CDT
Civil Twilight 5:46 AM CDT 9:27 PM CDT
Nautical Twilight 5:03 AM CDT 10:11 PM CDT
Astronomical Twilight 4:12 AM CDT 11:02 PM CDT
Moon 3:38 PM CDT (5/1) 3:42 AM CDT (5/1)
Length of Visible Light 15h 41m
Length of Day
14h 31m
Waxing Gibbous, 74% of the Moon is Illuminated
May 1
Waxing Gibbous
May 5
Full
May 12
Last Quarter
May 20
New
May 28
First Quarter

Hourly Weather History & Observations

Time (CDT) Temp. Windchill Dew Point Humidity Pressure Visibility Wind Dir Wind Speed Gust Speed Precip Events Conditions
12:15 AM 55.4 °F - 41.0 °F 58% 29.59 in 10.0 mi SSE 3.5 mph - N/A   Mostly Cloudy
12:35 AM 55.4 °F - 39.2 °F 54% 29.60 in 10.0 mi SSW 9.2 mph - N/A   Mostly Cloudy
12:55 AM 59.0 °F - 39.2 °F 48% 29.59 in 10.0 mi WNW 6.9 mph - N/A   Scattered Clouds
1:15 AM 57.2 °F - 39.2 °F 51% 29.59 in 10.0 mi West 4.6 mph - N/A   Clear
1:35 AM 59.0 °F - 39.2 °F 48% 29.58 in 10.0 mi South 10.4 mph - N/A   Clear
1:55 AM 55.4 °F - 39.2 °F 54% 29.57 in 10.0 mi South 4.6 mph - N/A   Clear
2:15 AM 55.4 °F - 41.0 °F 58% 29.56 in 10.0 mi South 5.8 mph - N/A   Clear
2:35 AM 53.6 °F - 41.0 °F 62% 29.55 in 10.0 mi South 4.6 mph - N/A   Clear
2:55 AM 51.8 °F - 41.0 °F 67% 29.55 in 10.0 mi Calm Calm - N/A   Mostly Cloudy
3:15 AM 50.0 °F - 41.0 °F 71% 29.54 in 10.0 mi Calm Calm - N/A   Scattered Clouds
3:35 AM 50.0 °F - 41.0 °F 71% 29.54 in 10.0 mi SE 5.8 mph - N/A   Clear
3:55 AM 50.0 °F - 41.0 °F 71% 29.53 in 10.0 mi SE 4.6 mph - N/A   Clear
4:15 AM 48.2 °F - 41.0 °F 76% 29.53 in 10.0 mi ENE 4.6 mph - N/A   Clear
4:35 AM 48.2 °F - 41.0 °F 76% 29.52 in 10.0 mi East 8.1 mph - N/A   Clear
4:55 AM 46.4 °F - 41.0 °F 81% 29.52 in 10.0 mi Calm Calm - N/A   Clear
5:15 AM 44.6 °F 41.4 °F 41.0 °F 87% 29.52 in 10.0 mi ENE 5.8 mph - N/A   Clear
5:35 AM 42.8 °F 38.6 °F 41.0 °F 93% 29.52 in 10.0 mi North 6.9 mph - N/A   Clear
5:55 AM 42.8 °F 38.6 °F 41.0 °F 93% 29.52 in 10.0 mi NE 6.9 mph - N/A   Clear
6:15 AM 42.8 °F 40.1 °F 41.0 °F 93% 29.51 in 10.0 mi NE 4.6 mph - N/A   Clear
6:35 AM 42.8 °F 40.1 °F 41.0 °F 93% 29.52 in 10.0 mi ENE 4.6 mph - N/A   Clear
6:55 AM 42.8 °F 39.3 °F 41.0 °F 93% 29.51 in 10.0 mi ENE 5.8 mph - N/A   Clear
7:15 AM 44.6 °F 41.4 °F 42.8 °F 93% 29.51 in 10.0 mi East 5.8 mph - N/A   Clear
7:35 AM 44.6 °F 41.4 °F 44.6 °F 100% 29.51 in 10.0 mi East 5.8 mph - N/A   Clear
7:55 AM 46.4 °F 44.3 °F 44.6 °F 93% 29.50 in 10.0 mi ESE 4.6 mph - N/A   Clear
8:15 AM 50.0 °F - 46.4 °F 87% 29.51 in 7.0 mi ESE 5.8 mph - N/A   Clear
8:35 AM 51.8 °F - 46.4 °F 82% 29.51 in 10.0 mi ESE 4.6 mph - N/A   Clear
8:55 AM 53.6 °F - 46.4 °F 77% 29.51 in 10.0 mi SSE 8.1 mph - N/A   Partly Cloudy
9:35 AM 55.4 °F - 48.2 °F 77% 29.50 in 10.0 mi South 6.9 mph - N/A   Clear
9:55 AM 55.4 °F - 48.2 °F 77% 29.50 in 10.0 mi SSE 5.8 mph - N/A   Partly Cloudy
10:15 AM 59.0 °F - 48.2 °F 67% 29.50 in 10.0 mi SW 3.5 mph - N/A   Partly Cloudy
10:35 AM 60.8 °F - 48.2 °F 63% 29.50 in 10.0 mi WSW 6.9 mph - N/A   Partly Cloudy
10:55 AM 60.8 °F - 48.2 °F 63% 29.50 in 10.0 mi West 9.2 mph - N/A   Partly Cloudy
11:15 AM 62.6 °F - 48.2 °F 59% 29.49 in 10.0 mi West 10.4 mph - N/A   Clear
11:35 AM 62.6 °F - 48.2 °F 59% 29.49 in 10.0 mi WNW 4.6 mph - N/A   Partly Cloudy
11:55 AM 64.4 °F - 50.0 °F 59% 29.49 in 10.0 mi West 8.1 mph - N/A   Partly Cloudy
12:15 PM 64.4 °F - 48.2 °F 56% 29.49 in 10.0 mi NNW 5.8 mph - N/A   Clear
12:35 PM 66.2 °F - 48.2 °F 52% 29.49 in 10.0 mi NW 9.2 mph - N/A   Clear
12:55 PM 66.2 °F - 48.2 °F 52% 29.49 in 10.0 mi North 9.2 mph - N/A   Clear
1:15 PM 68.0 °F - 44.6 °F 43% 29.49 in 10.0 mi North 11.5 mph - N/A   Scattered Clouds
1:35 PM 68.0 °F - 42.8 °F 40% 29.48 in 10.0 mi North 12.7 mph - N/A   Partly Cloudy
1:55 PM 69.8 °F - 44.6 °F 40% 29.48 in 10.0 mi North 10.4 mph 17.3 mph N/A   Clear
2:15 PM 69.8 °F - 44.6 °F 40% 29.48 in 10.0 mi NNW 11.5 mph 18.4 mph N/A   Clear
2:35 PM 69.8 °F - 44.6 °F 40% 29.49 in 10.0 mi NNW 13.8 mph - N/A   Clear
3:15 PM 69.8 °F - 39.2 °F 33% 29.50 in 10.0 mi NNE 6.9 mph - N/A   Clear
3:35 PM 69.8 °F - 41.0 °F 35% 29.49 in 10.0 mi NNW 5.8 mph - N/A   Clear
3:55 PM 69.8 °F - 39.2 °F 33% 29.48 in 10.0 mi NNW 12.7 mph 16.1 mph N/A   Clear
4:15 PM 71.6 °F - 39.2 °F 31% 29.48 in 10.0 mi West 6.9 mph - N/A   Partly Cloudy
4:35 PM 68.0 °F - 41.0 °F 37% 29.49 in 10.0 mi West 9.2 mph - N/A   Mostly Cloudy
4:55 PM 69.8 °F - 41.0 °F 35% 29.49 in 10.0 mi WNW 12.7 mph 16.1 mph N/A   Scattered Clouds
5:15 PM 68.0 °F - 42.8 °F 40% 29.50 in 10.0 mi WNW 12.7 mph 18.4 mph N/A   Scattered Clouds
5:35 PM 64.4 °F - 46.4 °F 52% 29.52 in 9.0 mi WSW 23.0 mph 28.8 mph N/A Rain Light Rain
5:55 PM 57.2 °F - 51.8 °F 82% 29.53 in 5.0 mi WSW 25.3 mph 31.1 mph N/A Rain Light Rain
6:15 PM 57.2 °F - 53.6 °F 88% 29.53 in 10.0 mi West 21.9 mph 31.1 mph N/A   Scattered Clouds
6:35 PM 57.2 °F - 53.6 °F 88% 29.53 in 8.0 mi WNW 19.6 mph 25.3 mph N/A Rain Light Rain
6:55 PM 59.0 °F - 53.6 °F 82% 29.53 in 10.0 mi NNW 11.5 mph - N/A   Clear
7:15 PM 59.0 °F - 50.0 °F 72% 29.52 in 10.0 mi North 4.6 mph - N/A   Clear
7:35 PM 62.6 °F - 48.2 °F 59% 29.52 in 10.0 mi Calm Calm - N/A   Clear
7:55 PM 62.6 °F - 48.2 °F 59% 29.52 in 10.0 mi West 4.6 mph - N/A   Clear
8:15 PM 60.8 °F - 48.2 °F 63% 29.53 in 10.0 mi West 5.8 mph - N/A   Clear
8:35 PM 57.2 °F - 50.0 °F 77% 29.53 in 10.0 mi West 8.1 mph - N/A   Clear
8:55 PM 57.2 °F - 50.0 °F 77% 29.54 in 10.0 mi West 8.1 mph - N/A   Clear
9:15 PM 53.6 °F - 50.0 °F 88% 29.55 in 10.0 mi WSW 8.1 mph - N/A   Clear
9:35 PM 53.6 °F - 50.0 °F 88% 29.55 in 10.0 mi West 5.8 mph - N/A   Clear
9:55 PM 51.8 °F - 50.0 °F 94% 29.56 in 10.0 mi WSW 5.8 mph - N/A   Clear
10:15 PM 50.0 °F - 48.2 °F 94% 29.56 in 10.0 mi WSW 5.8 mph - N/A   Clear
10:35 PM 50.0 °F - 48.2 °F 94% 29.56 in 10.0 mi West 8.1 mph - N/A   Clear
10:55 PM 50.0 °F - 48.2 °F 94% 29.56 in 10.0 mi West 8.1 mph - N/A   Clear
11:35 PM 50.0 °F - 46.4 °F 87% 29.56 in 10.0 mi West 10.4 mph - N/A   Clear
11:55 PM 48.2 °F - 46.4 °F 93% 29.57 in 10.0 mi SW 9.2 mph - N/A   Clear